| time (UTC) | temp F | wind direction | speed MPH | gust MPH | rain 1hr in | rain 24hr in | rain mn in | humidity % | barometer mb |
| 20260902044545 | 76 | 280 | 4.0 | 9.0 | 0.00 | 0.00 | 0.00 | 64 | 1018.6 |
| 20260902043043 | 76 | 288 | 4.0 | 11.0 | 0.00 | 0.00 | 0.00 | 66 | 1018.7 |
| 20260902041543 | 75 | 293 | 7.0 | 12.0 | 0.00 | 0.00 | 0.00 | 68 | 1018.8 |
| 20260902040043 | 75 | 273 | 4.0 | 10.0 | 0.00 | 0.00 | 0.00 | 68 | 1018.9 |
| 20260902034546 | 75 | 296 | 5.0 | 10.0 | 0.00 | 0.00 | 0.00 | 67 | 1019.0 |
| 20260902033040 | 75 | 294 | 4.0 | 8.0 | 0.00 | 0.00 | 0.00 | 67 | 1018.9 |
| 20260902031542 | 75 | 0 | 2.0 | 5.0 | 0.00 | 0.00 | 0.00 | 66 | 1019.1 |
| 20260902030041 | 76 | 0 | 0.0 | 1.0 | 0.00 | 0.00 | 0.00 | 67 | 1019.2 |
| 20260902024541 | 77 | 360 | 2.0 | 4.0 | 0.00 | 0.00 | 0.00 | 67 | 1019.2 |
| 20260902023040 | 77 | 0 | 0.0 | 2.0 | 0.00 | 0.00 | 0.00 | 67 | 1019.1 |
| 20260902021546 | 77 | 0 | 0.0 | 3.0 | 0.00 | 0.00 | 0.00 | 67 | 1019.0 |
| 20260902020055 | 76 | 279 | 3.0 | 5.0 | 0.00 | 0.00 | 0.00 | 67 | 1019.2 |
| 20260902014548 | 77 | 293 | 2.0 | 5.0 | 0.00 | 0.00 | 0.00 | 66 | 1019.3 |
| 20260902013041 | 77 | 302 | 2.0 | 5.0 | 0.00 | 0.00 | 0.00 | 66 | 1019.4 |
| 20260902011541 | 78 | 296 | 2.0 | 5.0 | 0.00 | 0.00 | 0.00 | 66 | 1019.4 |
| 20260902010037 | 78 | 290 | 3.0 | 6.0 | 0.00 | 0.00 | 0.00 | 66 | 1019.4 |
| 20260902004539 | 78 | 266 | 1.0 | 4.0 | 0.00 | 0.00 | 0.00 | 66 | 1019.5 |
| 20260902003046 | 79 | 262 | 1.0 | 3.0 | 0.00 | 0.00 | 0.00 | 66 | 1019.5 |
| 20260902001541 | 78 | 0 | 0.0 | 4.0 | 0.00 | 0.00 | 0.00 | 66 | 1019.8 |
| 20260902000042 | 79 | 0 | 0.0 | 0.0 | 0.00 | 0.00 | 0.00 | 66 | 1020.1 |
| 20260901234600 | 79 | 0 | 1.0 | 6.0 | 0.00 | 0.00 | 0.00 | 66 | 1020.2 |
| 20260901233052 | 79 | 279 | 3.0 | 6.0 | 0.00 | 0.00 | 0.00 | 66 | 1020.1 |
| 20260901231544 | 79 | 264 | 3.0 | 6.0 | 0.00 | 0.00 | 0.00 | 66 | 1020.1 |
| 20260901230048 | 79 | 0 | 1.0 | 4.0 | 0.00 | 0.00 | 0.00 | 66 | 1020.2 |
| 20260901224542 | 79 | 288 | 2.0 | 4.0 | 0.00 | 0.00 | 0.00 | 66 | 1020.2 |
| 20260901223046 | 79 | 0 | 0.0 | 0.0 | 0.00 | 0.00 | 0.00 | 66 | 1020.3 |
| 20260901221606 | 79 | 0 | 0.0 | 0.0 | 0.00 | 0.00 | 0.00 | 66 | 1020.3 |
| 20260901220039 | 79 | 0 | 0.0 | 0.0 | 0.00 | 0.00 | 0.00 | 66 | 1020.3 |
| 20260901214546 | 79 | 0 | 0.0 | 0.0 | 0.00 | 0.00 | 0.00 | 66 | 1020.2 |
| 20260901213044 | 79 | 0 | 0.0 | 0.0 | 0.00 | 0.00 | 0.00 | 66 | 1020.1 |
| 20260901211538 | 79 | 0 | 0.0 | 0.0 | 0.00 | 0.00 | 0.00 | 66 | 1020.1 |
| 20260901210047 | 80 | 0 | 0.0 | 0.0 | 0.00 | 0.00 | 0.00 | 66 | 1020.0 |
| 20260901204547 | 80 | 0 | 0.0 | 0.0 | 0.00 | 0.00 | 0.00 | 65 | 1019.9 |
| 20260901203058 | 80 | 0 | 0.0 | 3.0 | 0.00 | 0.00 | 0.00 | 65 | 1020.0 |
| 20260901201547 | 80 | 94 | 0.0 | 6.0 | 0.00 | 0.00 | 0.00 | 65 | 1019.7 |
| 20260901200038 | 80 | 0 | 1.0 | 6.0 | 0.00 | 0.00 | 0.00 | 64 | 1019.6 |
| 20260901194545 | 80 | 93 | 2.0 | 7.0 | 0.00 | 0.00 | 0.00 | 63 | 1019.3 |
| 20260901193054 | 81 | 88 | 2.0 | 8.0 | 0.00 | 0.00 | 0.00 | 62 | 1019.2 |
| 20260901191544 | 81 | 80 | 1.0 | 5.0 | 0.00 | 0.00 | 0.00 | 61 | 1019.1 |
| 20260901190045 | 81 | 101 | 2.0 | 9.0 | 0.00 | 0.00 | 0.00 | 60 | 1018.8 |
| 20260901184546 | 82 | 142 | 2.0 | 8.0 | 0.00 | 0.00 | 0.00 | 59 | 1018.5 |
| 20260901183042 | 82 | 111 | 4.0 | 11.0 | 0.00 | 0.00 | 0.00 | 59 | 1018.1 |
| 20260901181543 | 82 | 89 | 6.0 | 12.0 | 0.00 | 0.00 | 0.00 | 56 | 1018.3 |
| 20260901180045 | 83 | 78 | 4.0 | 10.0 | 0.00 | 0.00 | 0.00 | 54 | 1018.2 |
| 20260901174543 | 83 | 76 | 5.0 | 12.0 | 0.00 | 0.00 | 0.00 | 54 | 1018.2 |
| 20260901173043 | 84 | 75 | 7.0 | 12.0 | 0.00 | 0.00 | 0.00 | 54 | 1018.3 |
| 20260901171546 | 84 | 120 | 7.0 | 11.0 | 0.00 | 0.00 | 0.00 | 51 | 1018.4 |
| 20260901170042 | 84 | 126 | 5.0 | 11.0 | 0.00 | 0.00 | 0.00 | 50 | 1018.4 |
| 20260901164539 | 85 | 111 | 5.0 | 10.0 | 0.00 | 0.00 | 0.00 | 49 | 1018.4 |
| 20260901163048 | 85 | 103 | 5.0 | 13.0 | 0.00 | 0.00 | 0.00 | 46 | 1018.5 |
| 20260901161546 | 86 | 130 | 7.0 | 12.0 | 0.00 | 0.00 | 0.00 | 46 | 1018.2 |
| 20260901160052 | 86 | 152 | 7.0 | 15.0 | 0.00 | 0.00 | 0.00 | 46 | 1018.1 |
| 20260901154538 | 87 | 104 | 8.0 | 15.0 | 0.00 | 0.00 | 0.00 | 46 | 1017.9 |
| 20260901153041 | 87 | 103 | 7.0 | 14.0 | 0.00 | 0.00 | 0.00 | 45 | 1017.9 |
| 20260901151547 | 87 | 65 | 7.0 | 15.0 | 0.00 | 0.00 | 0.00 | 44 | 1017.9 |
| 20260901150044 | 87 | 132 | 8.0 | 15.0 | 0.00 | 0.00 | 0.00 | 46 | 1018.0 |
| 20260901144543 | 87 | 126 | 7.0 | 15.0 | 0.00 | 0.00 | 0.00 | 46 | 1017.9 |
| 20260901143042 | 87 | 103 | 6.0 | 15.0 | 0.00 | 0.00 | 0.00 | 45 | 1018.2 |
| 20260901141538 | 86 | 132 | 7.0 | 14.0 | 0.00 | 0.00 | 0.00 | 47 | 1018.2 |
| 20260901140040 | 84 | 105 | 7.0 | 13.0 | 0.00 | 0.00 | 0.00 | 48 | 1018.4 |
| 20260901134558 | 84 | 91 | 5.0 | 10.0 | 0.00 | 0.00 | 0.00 | 48 | 1019.4 |
| 20260901133038 | 84 | 72 | 5.0 | 11.0 | 0.00 | 0.00 | 0.00 | 49 | 1019.5 |
| 20260901131542 | 85 | 42 | 3.0 | 8.0 | 0.00 | 0.00 | 0.00 | 48 | 1019.8 |
| 20260901130042 | 85 | 74 | 4.0 | 9.0 | 0.00 | 0.00 | 0.00 | 47 | 1019.8 |
| 20260901124550 | 85 | 144 | 4.0 | 12.0 | 0.00 | 0.00 | 0.00 | 47 | 1019.9 |
| 20260901123044 | 86 | 76 | 6.0 | 15.0 | 0.00 | 0.00 | 0.00 | 47 | 1019.7 |
| 20260901121542 | 86 | 99 | 7.0 | 13.0 | 0.00 | 0.00 | 0.00 | 48 | 1019.8 |
| 20260901120055 | 86 | 75 | 5.0 | 12.0 | 0.00 | 0.00 | 0.00 | 48 | 1019.9 |
| 20260901114542 | 86 | 88 | 4.0 | 9.0 | 0.00 | 0.00 | 0.00 | 47 | 1020.4 |
| 20260901113107 | 86 | 123 | 5.0 | 10.0 | 0.00 | 0.00 | 0.00 | 48 | 1020.2 |
| 20260901111540 | 85 | 93 | 4.0 | 11.0 | 0.00 | 0.00 | 0.00 | 51 | 1020.2 |
| 20260901110100 | 85 | 89 | 5.0 | 13.0 | 0.00 | 0.00 | 0.00 | 52 | 1020.2 |
| 20260901104545 | 85 | 119 | 4.0 | 11.0 | 0.00 | 0.00 | 0.00 | 53 | 1020.5 |
| 20260901103042 | 85 | 78 | 5.0 | 10.0 | 0.00 | 0.00 | 0.00 | 54 | 1020.4 |
| 20260901101609 | 84 | 122 | 4.0 | 10.0 | 0.00 | 0.00 | 0.00 | 57 | 1020.8 |
| 20260901100104 | 83 | 62 | 4.0 | 9.0 | 0.00 | 0.00 | 0.00 | 57 | 1021.0 |
| 20260901094544 | 82 | 114 | 2.0 | 7.0 | 0.00 | 0.00 | 0.00 | 58 | 1020.9 |
| 20260901093044 | 81 | 93 | 1.0 | 9.0 | 0.00 | 0.00 | 0.00 | 59 | 1020.9 |
| 20260901091541 | 81 | 0 | 0.0 | 6.0 | 0.00 | 0.00 | 0.00 | 61 | 1020.9 |
| 20260901090046 | 81 | 84 | 2.0 | 7.0 | 0.00 | 0.00 | 0.00 | 60 | 1020.8 |
| 20260901084546 | 80 | 40 | 3.0 | 6.0 | 0.00 | 0.00 | 0.00 | 60 | 1020.7 |
| 20260901083042 | 81 | 0 | 0.0 | 0.0 | 0.00 | 0.00 | 0.00 | 59 | 1020.7 |
| 20260901081545 | 80 | 0 | 0.0 | 0.0 | 0.00 | 0.00 | 0.00 | 59 | 1020.8 |
| 20260901080044 | 79 | 0 | 0.0 | 0.0 | 0.00 | 0.00 | 0.00 | 61 | 1020.6 |
| 20260901074545 | 78 | 0 | 0.0 | 0.0 | 0.00 | 0.00 | 0.00 | 61 | 1020.5 |
| 20260901073043 | 78 | 0 | 0.0 | 0.0 | 0.00 | 0.00 | 0.00 | 63 | 1020.4 |
| 20260901071540 | 77 | 0 | 0.0 | 0.0 | 0.00 | 0.00 | 0.00 | 64 | 1020.3 |
| 20260901070053 | 77 | 0 | 0.0 | 0.0 | 0.00 | 0.00 | 0.00 | 64 | 1020.1 |
| 20260901064545 | 76 | 0 | 0.0 | 0.0 | 0.00 | 0.00 | 0.00 | 64 | 1019.9 |
| 20260901063046 | 76 | 0 | 0.0 | 0.0 | 0.00 | 0.00 | 0.00 | 63 | 1019.9 |
| 20260901061542 | 77 | 0 | 0.0 | 0.0 | 0.00 | 0.00 | 0.00 | 63 | 1019.6 |
| 20260901060045 | 77 | 0 | 0.0 | 0.0 | 0.00 | 0.00 | 0.00 | 64 | 1019.2 |
| 20260901054548 | 77 | 0 | 0.0 | 0.0 | 0.00 | 0.00 | 0.00 | 64 | 1018.9 |
| 20260901053104 | 77 | 0 | 0.0 | 4.0 | 0.00 | 0.00 | 0.00 | 64 | 1018.6 |
| 20260901051547 | 77 | 128 | 3.0 | 6.0 | 0.00 | 0.00 | 0.00 | 64 | 1018.6 |
| 20260901050044 | 77 | 134 | 1.0 | 7.0 | 0.00 | 0.00 | 0.00 | 64 | 1018.3 |